STARLINK-11502, 62474

Orbit data source: Space-Track

STARLINK-11502, 62474 is a payload satellite owned by SpaceX/Seattle (US) in LEO that was launched on Tue, 31 Dec 2024 UTC via an FALCON 9 launch vehicle from the Air Force Eastern Test Range (AFETR). Payloads include a variety of satellites, spacecraft, and rockets equipped with specific instruments for various scientific and technological missions. These include communications satellites like Starlink; space stations such as the ISS; scientific satellites like the Hubble; Earth observation satellites from companies like Planet Labs, Umbra, and HawkEye 360; GPS; miniature CubeSats for education and research; and military/defense satellites.

Loading next visibility...
STARLINK-11502 details
Identifier
62474, 2024-254N
Orbit
LEO
Last TLE update17 hours ago
Origin
Flag of USSpaceX/Seattle (US)
ManufacturerSpaceX/Seattle
MissionOperational Commercial Communications
Bus & MotorSTARLINK V2M, Unknown motor
Mass730 kg wet, ~700 kg dry
Launch date (UTC)
2024-12-31 (1 month ago)
Launch vehicle
FALCON 9
Launch site
Air Force Eastern Test Range (AFETR)
Object type
Payload
Rocket body
Debris
Shape & HBRBox + 2 Pan, 29 m
Radar Cross Section36.964 m², Large (>1 m²)

Expand to show TLE details & history

TLE from 17 hours ago
0 STARLINK-11502
1 62474U 24254N   25035.48381511  .00003686  00000-0  24037-4 0  9999
2 62474  43.0039 104.1334 0001481 282.4147  77.6557 15.77858959  6762
Epoch: 2025-02-04T11:36Z
Definitive object data (Epoch: 2025-02-04T11:36:41.625Z)
Latitude-0.00005°
Longitude155.07146°
Altitude336.066 km
Speed7.709 km/s
True Right ascension06h 56m 32s
True Declination0° 00' 00"
Sunlit
Object was in full shadow at TLE epoch
Visualization TLE readout
Latitude23.86567°
Longitude-57.47022°
Altitude337 km
Speed7.71 km/s
Apparent Right ascension17h 44m 24s
Apparent Declination-7° 21' 51"
Sunlit
Object is in daylight
Visualization observer readout
Local Sidereal Time06:57:39
Azimuth31.638° NE
Elevation-53.55°
Doppler factor1
Orbital elements
Apogee altitude339.489 km
Perigee altitude337.5 km
Semi-major axis6,716.632 km
Eccentricity0.0001481
Inclination43.0039°
RAAN104.1334°
Arg. of periapsis282.4147°
True anomaly77.67228°
Mean anomaly77.6557°
Eccentric anomaly77.66399°
Mean motion3.9429 °/min
BSTAR0.000024037
Orbital period91.3 mins
Loading maneuver chart data...
Loading historical data...
Loading historical data...
Loading historical data...
Loading historical data...
Loading historical data...
Loading historical data...
Loading historical data...

STARLINK-11502 Visibility forecast

Observer location: undefined°, undefined

Span
Click to sort rows by Start time (UTC) header in descending order
Start Az.
Max El. time (UTC)
Max El. Az.
Max El.
End time (UTC)
End Az.
4 mins2025-02-05 12:21:44.250Z284.747° WNW2025-02-05 12:23:44.250Z131.593° SE41.438°2025-02-05 12:25:44.250Z114.025° SE
|